Temperature
2 2 2 2 2 2 2 2 2 2 2 2 2 2 2 2 2 2 2 2 2 2 2 2 2 2 2 2 2 2 2 2 2 2 3 3 3 3 3 3 3 3 3
1 1 1 1 2 2 2 2 2 2 2 2 1 2 1 1 1 1 1 1 1 2 1 1 1 1 1 1 1 1 1 1 1 1 2 2 2 2 2 2 2 2 2
0 1 1 1 1 1 1 1 1 1 1 1 1 1 1 1 1 1 1 1 1 1 1 1 1 0 0 0 0 0 1 1 0 0 1 1 1 1 1 2 2 2 2
-0 -0 0 0 0 0 0 0 0 0 0 0 0 0 0 0 0 -0 0 -0 -0 -0 -0 -0 -0 -0 -0 -0 -0 -0 -0 -0 -0 -1 -1 -0 -0 0 0 1 1 1 2
-1 -1 -1 -1 -1 -1 -1 -0 -0 -0 -0 -0 -0 -0 -0 -1 -1 -1 -1 -1 -1 -1 -1 -1 -1 -1 -1 -1 -1 -1 -1 -1 -1 -1 -1 -1 -1 -1 -1 -0 -0 0 1
-2 -2 -2 -2 -2 -1 -1 -1 -1 -1 -1 -1 -1 -1 -1 -1 -1 -1 -1 -1 -2 -2 -1 -1 -1 -1 -1 -2 -2 -2 -2 -2 -2 -2 -2 -2 -2 -2 -1 -1 -1 -1 -1
-3 -2 -2 -2 -2 -2 -2 -2 -2 -2 -2 -2 -2 -2 -2 -2 -2 -2 -2 -2 -2 -2 -2 -2 -2 -2 -2 -2 -2 -2 -3 -3 -3 -3 -3 -2 -2 -2 -2 -2 -2 -2 -2
-3 -3 -3 -3 -3 -3 -3 -3 -3 -3 -3 -3 -3 -3 -3 -3 -3 -3 -3 -3 -3 -3 -3 -3 -3 -3 -3 -3 -3 -3 -3 -3 -3 -3 -3 -3 -3 -3 -3 -3 -3 -3 -3
-4 -4 -4 -4 -4 -4 -3 -3 -3 -3 -3 -3 -3 -3 -3 -3 -3 -4 -4 -4 -4 -4 -4 -3 -3 -3 -3 -3 -4 -4 -4 -3 -3 -4 -4 -4 -4 -4 -4 -4 -4 -4 -4
-5 -5 -5 -5 -4 -4 -4 -4 -4 -4 -4 -4 -4 -4 -4 -4 -4 -4 -5 -5 -5 -4 -4 -4 -4 -4 -4 -4 -4 -4 -4 -4 -4 -4 -4 -4 -4 -4 -4 -4 -5 -5 -4
-6 -6 -6 -6 -5 -5 -5 -5 -5 -5 -5 -5 -5 -5 -5 -5 -5 -5 -5 -5 -5 -5 -5 -5 -5 -5 -5 -5 -5 -5 -4 -5 -5 -5 -5 -5 -5 -5 -5 -5 -5 -5 -5
-7 -7 -7 -7 -6 -6 -6 -6 -6 -6 -6 -6 -6 -6 -6 -6 -6 -6 -6 -6 -6 -6 -6 -6 -5 -5 -5 -5 -5 -5 -5 -5 -5 -5 -5 -5 -5 -5 -5 -5 -5 -5 -5
-8 -7 -8 -8 -7 -7 -7 -7 -7 -7 -7 -7 -7 -7 -7 -7 -7 -7 -7 -7 -7 -6 -6 -6 -6 -6 -6 -6 -6 -6 -6 -6 -6 -6 -6 -6 -6 -6 -6 -6 -6 -6 -6
-8 -8 -8 -8 -8 -8 -8 -8 -8 -8 -8 -8 -7 -7 -7 -7 -7 -7 -7 -7 -7 -7 -7 -7 -7 -7 -6 -6 -6 -6 -6 -6 -6 -6 -6 -6 -6 -7 -7 -7 -7 -7 -7
-9 -9 -9 -9 -9 -9 -9 -9 -9 -8 -9 -8 -8 -8 -8 -8 -8 -7 -8 -8 -8 -8 -7 -7 -7 -7 -7 -7 -7 -7 -7 -7 -7 -7 -7 -7 -7 -7 -7 -8 -7 -7 -7
-10 -10 -10 -10 -10 -10 -10 -9 -9 -9 -9 -9 -9 -9 -9 -9 -8 -8 -8 -8 -8 -8 -8 -8 -8 -8 -8 -8 -8 -8 -8 -8 -8 -8 -8 -8 -8 -8 -8 -8 -8 -8 -8
-11 -11 -11 -10 -10 -10 -10 -10 -10 -10 -10 -10 -10 -10 -9 -9 -9 -9 -9 -9 -9 -9 -9 -9 -9 -9 -9 -9 -9 -9 -9 -9 -9 -9 -9 -9 -9 -9 -9 -9 -9 -9 -8
-11 -11 -11 -11 -11 -11 -11 -11 -11 -11 -11 -10 -10 -10 -10 -10 -10 -10 -10 -10 -10 -10 -10 -10 -10 -10 -10 -10 -10 -10 -10 -10 -10 -9 -9 -9 -9 -9 -9 -9 -9 -9 -9
-11 -11 -11 -11 -12 -12 -12 -12 -12 -12 -12 -11 -11 -11 -11 -11 -11 -11 -11 -11 -10 -10 -10 -11 -11 -11 -11 -11 -11 -11 -11 -11 -10 -10 -10 -10 -10 -10 -10 -10 -10 -10 -10
-12 -12 -12 -12 -12 -12 -12 -12 -12 -12 -12 -12 -12 -12 -12 -12 -11 -11 -11 -11 -11 -11 -11 -11 -11 -12 -12 -11 -11 -11 -11 -11 -11 -11 -11 -11 -11 -11 -11 -11 -11 -10 -10
-12 -12 -12 -12 -12 -12 -13 -13 -13 -13 -13 -13 -13 -13 -13 -12 -12 -12 -12 -12 -12 -12 -12 -12 -12 -12 -12 -12 -12 -12 -12 -12 -12 -12 -12 -12 -12 -11 -11 -11 -11 -11 -11
-13 -13 -13 -13 -13 -13 -13 -13 -13 -13 -13 -13 -13 -13 -13 -13 -13 -13 -13 -13 -13 -13 -13 -13 -13 -13 -13 -13 -13 -13 -13 -12 -12 -12 -12 -12 -12 -12 -12 -12 -12 -12 -11
-13 -13 -13 -13 -14 -14 -14 -14 -14 -14 -14 -14 -14 -14 -14 -14 -13 -13 -13 -13 -13 -13 -13 -13 -13 -13 -13 -13 -13 -13 -13 -13 -13 -13 -13 -13 -13 -13 -13 -13 -12 -12 -12
-14 -14 -14 -14 -14 -14 -14 -14 -14 -14 -14 -14 -14 -14 -14 -14 -14 -14 -14 -14 -14 -13 -13 -13 -13 -13 -13 -13 -13 -13 -13 -13 -13 -13 -13 -13 -13 -13 -13 -13 -13 -13 -13
-14 -14 -14 -14 -14 -14 -14 -14 -14 -14 -14 -14 -14 -14 -14 -14 -14 -14 -14 -14 -14 -14 -14 -13 -13 -13 -13 -13 -13 -13 -13 -13 -13 -14 -14 -14 -13 -13 -13 -13 -13 -13 -13
-15 -15 -15 -15 -15 -15 -15 -15 -15 -15 -15 -15 -15 -15 -15 -15 -14 -14 -14 -14 -14 -14 -14 -14 -14 -14 -14 -13 -13 -13 -13 -13 -13 -14 -14 -14 -14 -14 -14 -14 -14 -14 -14
Wind_Speed
2 2 2 3 3 3 3 4 5 4 5 5 5 6 5 6 5 6 6 6 6 6 5 5 6 4 3 3 2 2 3 3 5 4 3 2 3 4 6 7 8 8 10
2 2 3 3 2 3 4 4 4 5 5 5 5 5 6 6 6 6 7 7 8 8 7 6 6 5 5 4 4 4 4 4 4 5 3 2 4 4 5 5 6 7 9
2 2 2 2 3 4 4 4 3 4 4 4 5 6 6 6 6 7 7 8 8 8 8 8 7 6 6 5 5 5 4 4 3 4 4 3 2 2 3 4 5 5 7
2 2 2 3 3 4 4 4 3 3 4 5 5 5 6 6 6 6 6 7 7 8 8 8 8 8 9 8 7 7 5 5 4 4 4 3 3 2 2 3 4 4 5
2 3 3 3 3 3 3 3 3 3 4 4 4 4 4 5 5 6 6 7 6 7 7 8 8 9 10 9 7 7 6 6 5 5 4 3 3 2 3 3 5 4 4
3 3 4 3 3 3 3 3 2 2 3 3 4 5 5 4 6 8 7 6 6 7 7 8 8 9 10 11 12 10 9 8 7 6 6 6 6 4 3 3 3 4 4
3 3 3 4 3 4 3 3 3 3 3 3 4 4 5 5 7 7 8 6 6 6 7 7 6 7 9 8 9 10 9 11 10 8 8 8 6 6 5 5 5 5 6
3 3 3 3 4 4 3 3 3 3 3 3 4 4 4 5 6 7 7 5 5 6 6 6 6 6 7 8 8 8 8 8 9 8 8 8 6 6 7 7 7 5 4
3 3 4 4 4 4 4 4 3 3 3 3 3 3 4 4 6 6 6 4 4 5 5 6 6 7 8 9 8 8 8 7 9 11 10 9 9 9 7 4 4 4 5
4 4 4 4 4 4 4 4 3 2 2 2 2 3 3 4 5 5 5 4 4 4 4 5 7 8 9 9 8 8 8 7 5 6 6 7 7 8 9 7 6 5 4
4 4 4 4 4 3 3 3 2 2 2 1 2 2 3 3 4 4 5 4 4 4 4 4 5 8 10 10 9 7 9 7 5 5 5 4 4 4 5 6 6 6 6
4 4 4 4 3 3 2 2 2 1 1 2 2 2 2 3 4 4 5 5 4 4 4 4 5 7 9 9 8 8 9 7 4 4 4 4 4 4 4 5 6 7 7
4 4 4 4 3 3 2 2 2 1 2 2 2 2 2 2 3 4 5 5 5 4 4 5 6 7 7 6 7 8 6 4 4 4 5 5 4 4 3 3 4 4 5
3 3 3 3 3 3 2 2 1 2 2 2 2 2 2 2 3 3 3 4 5 5 4 5 6 6 5 4 4 4 3 3 4 4 4 3 2 3 3 3 3 3 3
3 3 3 3 3 3 3 2 2 2 3 3 3 3 3 3 5 5 4 3 3 4 3 2 1 2 2 2 2 2 2 2 3 2 3 3 3 3 3 2 3 3 4
2 3 2 2 2 2 2 3 5 4 5 5 5 4 4 5 6 5 4 4 4 3 2 1 1 1 2 2 2 2 2 2 2 3 3 3 3 3 3 2 2 3 4
2 3 2 2 2 2 2 2 3 4 6 6 6 6 6 6 5 4 3 3 2 1 1 1 1 1 1 2 2 2 2 2 2 3 3 3 3 3 3 3 3 4 4
2 3 2 2 2 2 2 2 2 2 3 4 5 7 6 6 5 5 4 3 2 2 1 1 1 1 1 1 2 2 2 2 2 2 3 3 3 3 3 3 4 4 5
2 2 2 2 1 2 2 2 2 2 2 3 4 5 6 5 5 6 5 2 1 1 1 1 1 1 1 2 2 2 2 2 2 2 2 3 3 3 3 4 4 6 5
2 4 2 1 1 1 1 2 2 2 2 3 3 4 4 3 2 3 2 1 1 1 1 2 2 2 2 2 2 2 2 2 2 2 3 3 3 3 4 5 4 5 5
2 3 4 2 1 1 1 2 2 2 2 2 3 4 4 2 2 2 2 2 2 2 2 2 2 2 2 2 2 2 3 3 3 3 3 3 3 3 4 4 5 5 5
2 2 2 2 2 2 2 2 2 2 2 3 3 4 5 3 2 2 2 3 3 3 3 3 3 3 3 3 3 3 4 4 4 3 4 4 4 4 4 4 4 4 4
1 2 2 2 2 3 3 2 2 2 2 3 3 3 3 2 3 3 3 3 3 3 4 3 3 4 4 4 4 4 5 5 5 5 5 5 4 4 4 4 5 5 4
2 2 2 2 2 2 2 2 2 3 3 3 3 3 3 3 3 4 4 4 4 4 4 4 5 5 6 6 6 6 7 7 7 6 7 6 6 5 5 5 5 5 5
2 2 2 2 2 2 2 3 3 3 3 3 3 3 3 3 4 4 4 4 4 4 5 6 6 6 7 8 8 8 9 10 9 8 7 6 6 6 5 5 5 5 5
2 2 2 2 2 3 3 3 3 3 3 4 4 4 4 4 4 4 4 4 4 5 5 6 7 8 9 9 10 10 11 11 10 10 7 5 5 5 5 5 6 5 5
Wind_Direction
280 264 257 256 250 238 240 235 221 217 213 210 209 210 212 212 209 209 213 211 213 220 221 218 221 217 222 224 224 232 233 228 249 264 261 277 262 268 269 263 259 251 250
289 275 261 258 251 242 237 242 235 219 215 213 211 211 214 216 215 213 218 215 215 219 221 222 224 218 219 224 225 231 236 235 239 262 273 266 264 264 264 268 263 258 255
307 291 282 278 262 254 249 241 240 230 218 215 212 213 215 217 219 221 220 220 219 221 220 221 224 218 223 226 229 232 237 242 242 250 265 273 277 283 285 284 277 260 263
319 301 288 283 274 266 264 251 235 234 221 214 217 220 222 220 221 224 223 222 223 224 223 223 224 222 223 224 227 230 232 237 238 243 258 269 274 281 269 274 288 267 267
321 311 297 293 292 286 278 267 243 236 234 221 214 219 225 222 224 222 223 224 226 229 227 227 228 229 230 227 228 225 224 232 237 242 250 257 255 264 254 257 269 285 272
314 310 314 311 307 303 291 282 258 238 238 225 219 217 221 235 246 239 231 225 228 230 231 230 232 234 238 238 238 235 227 227 232 238 245 246 247 249 253 262 271 285 274
319 318 318 317 311 307 301 293 269 248 243 235 232 224 228 242 250 247 243 229 231 230 233 234 236 237 237 233 238 241 239 238 233 231 237 241 242 238 237 248 252 259 262
318 315 318 318 313 310 305 290 280 261 248 246 244 234 236 253 254 249 248 235 232 235 234 232 236 239 236 230 227 230 234 238 239 235 235 237 234 234 230 239 249 264 282
317 313 313 313 306 304 300 292 285 273 258 250 250 239 238 259 263 256 251 230 234 242 244 239 238 240 249 243 232 231 238 244 250 246 247 247 246 242 237 237 242 257 267
308 306 308 307 299 294 290 291 289 282 269 269 273 257 246 254 264 259 251 233 237 244 251 249 249 250 253 247 236 231 236 241 238 247 250 254 249 241 233 224 225 240 261
310 312 315 311 300 291 296 293 292 292 294 273 278 283 266 265 272 269 260 244 239 241 248 250 255 261 261 254 246 238 242 242 231 227 234 242 242 236 233 232 228 228 239
321 322 322 319 307 303 295 294 297 287 283 265 264 273 285 285 287 275 269 267 263 242 247 253 259 265 266 262 254 251 251 245 227 221 229 235 238 240 238 242 241 240 241
330 328 325 328 327 315 289 281 291 283 272 271 262 269 283 288 284 291 281 279 286 266 259 263 268 270 271 270 267 265 256 240 229 229 233 240 240 241 246 249 252 255 257
326 327 329 335 338 339 332 323 302 284 273 274 265 262 274 277 274 278 265 267 278 277 268 272 280 281 271 269 274 271 259 245 234 239 241 240 238 232 236 239 246 249 257
327 327 329 334 332 336 341 333 318 303 292 285 274 265 259 264 270 274 265 254 245 253 257 247 247 268 271 271 268 260 250 250 250 246 245 243 241 243 249 241 240 247 249
328 328 326 331 334 336 338 340 343 335 333 333 323 310 297 295 295 290 287 284 279 275 268 254 248 248 256 261 257 257 249 246 244 242 238 237 244 247 250 248 245 239 250
307 309 312 324 329 329 329 333 335 342 344 346 347 341 333 328 326 319 312 312 307 294 255 253 260 251 261 272 270 262 257 256 253 246 240 238 242 248 247 245 245 246 253
312 305 315 315 319 324 326 326 324 325 329 330 338 344 346 346 353 357 357 13 12 18 5 305 278 277 278 276 277 276 281 279 264 256 250 246 244 245 249 250 247 246 252
310 307 313 317 322 325 328 327 323 323 317 319 327 332 341 348 3 10 11 19 5 349 338 321 300 287 282 275 273 272 272 275 281 273 261 256 250 248 252 257 255 259 258
308 304 313 315 325 330 325 317 312 315 320 325 327 326 330 346 2 355 360 358 343 320 304 291 282 270 265 262 261 262 267 269 273 271 271 266 262 254 253 253 257 259 255
302 305 312 321 312 299 298 295 296 300 305 310 311 315 326 337 332 329 329 326 315 305 300 295 286 271 260 256 253 253 255 260 261 261 266 268 266 260 260 257 254 255 259
293 299 305 303 302 297 298 295 293 294 298 302 310 316 325 332 323 315 310 305 299 289 283 279 277 270 258 250 247 249 250 255 256 254 257 259 260 260 258 257 259 258 258
276 288 297 299 298 293 310 308 295 290 292 297 302 308 313 307 300 295 293 295 294 291 289 278 272 270 270 268 257 244 244 251 252 248 249 255 256 254 253 252 253 258 260
260 265 276 289 295 293 290 291 290 289 290 291 293 295 294 293 291 289 288 288 287 285 286 282 275 272 272 274 273 267 262 263 261 254 243 243 249 251 249 248 252 253 255
256 261 268 272 276 280 282 285 287 290 292 293 293 294 295 292 290 289 287 285 283 281 283 282 280 278 275 271 272 272 272 272 270 264 249 236 241 242 242 244 247 250 254
266 270 271 274 275 276 277 280 284 286 288 290 291 289 288 287 287 288 288 287 284 283 284 284 281 280 280 279 277 273 273 273 272 270 255 237 232 236 236 240 242 244 247
Height
1475 1475 1476 1477 1478 1478 1479 1480 1480 1481 1482 1482 1483 1484 1485 1486 1488 1489 1490 1491 1493 1494 1495 1496 1498 1499 1500 1501 1502 1503 1504 1504 1503 1502 1503 1504 1505 1505 1506 1506 1507 1507 1508
1471 1471 1472 1473 1473 1473 1474 1475 1475 1476 1477 1478 1478 1479 1480 1481 1482 1483 1484 1486 1487 1488 1489 1491 1492 1493 1494 1495 1496 1497 1498 1498 1498 1497 1497 1498 1499 1500 1500 1500 1501 1501 1502
1467 1467 1467 1468 1468 1468 1469 1469 1470 1471 1472 1472 1473 1474 1474 1475 1477 1478 1479 1480 1481 1482 1483 1484 1486 1487 1488 1489 1490 1491 1492 1492 1492 1492 1491 1492 1493 1493 1494 1494 1494 1495 1496
1463 1463 1463 1463 1463 1463 1464 1464 1465 1466 1466 1467 1468 1468 1469 1470 1471 1472 1473 1474 1475 1476 1477 1478 1479 1481 1482 1483 1484 1485 1486 1486 1486 1486 1486 1486 1486 1487 1487 1487 1487 1488 1489
1459 1459 1459 1459 1459 1459 1459 1459 1460 1461 1461 1462 1462 1463 1464 1465 1466 1467 1468 1468 1469 1470 1471 1472 1473 1475 1476 1477 1478 1478 1479 1480 1480 1479 1479 1480 1480 1480 1481 1481 1481 1481 1482
1456 1455 1455 1455 1455 1454 1454 1454 1455 1455 1456 1456 1457 1457 1458 1459 1460 1461 1462 1463 1463 1464 1465 1466 1467 1468 1469 1471 1472 1473 1474 1474 1474 1474 1473 1473 1473 1474 1475 1475 1475 1475 1474
1452 1452 1451 1451 1450 1450 1450 1450 1450 1450 1450 1451 1452 1452 1452 1453 1455 1456 1457 1457 1458 1458 1459 1459 1460 1461 1462 1464 1465 1466 1467 1467 1468 1468 1467 1467 1468 1469 1470 1470 1470 1469 1469
1449 1448 1447 1447 1446 1446 1445 1445 1445 1445 1445 1446 1446 1447 1447 1448 1449 1450 1451 1452 1452 1452 1453 1453 1454 1455 1456 1457 1458 1458 1459 1460 1461 1462 1462 1462 1463 1464 1465 1465 1464 1464 1463
1445 1444 1443 1443 1442 1441 1441 1441 1440 1441 1441 1441 1441 1441 1442 1442 1443 1444 1446 1446 1446 1446 1447 1447 1448 1448 1449 1451 1452 1452 1452 1453 1454 1455 1456 1456 1457 1458 1459 1459 1458 1458 1456
1441 1440 1440 1439 1438 1437 1437 1436 1436 1436 1436 1436 1436 1436 1437 1437 1438 1439 1440 1440 1440 1440 1441 1441 1442 1442 1443 1444 1445 1445 1445 1446 1447 1448 1449 1449 1450 1451 1452 1452 1452 1452 1450
1438 1437 1436 1435 1434 1433 1433 1432 1432 1432 1431 1431 1432 1432 1432 1432 1433 1434 1434 1435 1435 1435 1435 1435 1436 1436 1437 1438 1439 1439 1439 1441 1441 1442 1442 1443 1443 1444 1444 1445 1445 1446 1445
1435 1433 1432 1431 1430 1429 1429 1428 1428 1428 1427 1427 1427 1427 1427 1428 1428 1428 1429 1429 1430 1430 1430 1430 1430 1431 1431 1432 1433 1433 1434 1435 1435 1436 1436 1436 1437 1438 1438 1439 1439 1439 1440
1432 1430 1429 1428 1427 1426 1425 1425 1425 1424 1424 1423 1423 1423 1423 1423 1423 1423 1424 1424 1424 1424 1424 1425 1425 1426 1426 1426 1427 1428 1429 1429 1429 1430 1429 1430 1431 1432 1432 1433 1433 1433 1433
1429 1428 1426 1425 1424 1423 1422 1422 1421 1421 1421 1420 1420 1419 1419 1419 1419 1419 1419 1419 1419 1419 1419 1419 1420 1421 1421 1421 1422 1422 1423 1423 1423 1423 1424 1424 1425 1426 1426 1426 1427 1427 1427
1426 1425 1424 1422 1421 1420 1420 1419 1418 1418 1418 1418 1416 1416 1415 1415 1415 1415 1415 1414 1414 1415 1414 1414 1415 1415 1415 1415 1416 1416 1417 1418 1418 1418 1418 1418 1419 1419 1420 1420 1421 1421 1421
1424 1423 1421 1420 1419 1418 1417 1416 1415 1415 1414 1414 1413 1413 1412 1412 1411 1411 1411 1410 1410 1410 1410 1409 1409 1410 1410 1411 1411 1411 1412 1412 1413 1413 1413 1413 1414 1414 1414 1415 1415 1415 1415
1422 1421 1420 1418 1417 1416 1415 1414 1412 1412 1411 1410 1409 1409 1408 1408 1407 1407 1406 1406 1405 1405 1405 1404 1405 1405 1406 1406 1406 1406 1406 1407 1408 1408 1408 1409 1409 1409 1410 1410 1409 1409 1409
1420 1419 1418 1417 1416 1414 1413 1412 1411 1409 1408 1407 1406 1405 1405 1404 1403 1403 1402 1402 1401 1401 1401 1401 1401 1401 1401 1402 1402 1402 1402 1403 1403 1403 1404 1404 1404 1405 1405 1404 1404 1404 1404
1418 1417 1416 1415 1414 1413 1412 1411 1409 1408 1407 1405 1403 1402 1402 1401 1400 1400 1399 1399 1398 1397 1397 1397 1397 1398 1398 1398 1398 1398 1398 1398 1399 1399 1399 1399 1400 1400 1400 1400 1399 1399 1399
1416 1416 1415 1413 1412 1411 1410 1409 1407 1406 1404 1403 1401 1400 1399 1398 1397 1396 1396 1396 1395 1395 1395 1394 1394 1394 1395 1395 1394 1394 1395 1395 1395 1395 1395 1395 1395 1395 1395 1395 1395 1394 1394
1414 1413 1412 1411 1410 1409 1408 1407 1405 1404 1402 1401 1400 1399 1398 1396 1395 1394 1394 1393 1393 1392 1392 1391 1391 1391 1391 1391 1391 1391 1391 1391 1391 1391 1391 1391 1391 1391 1391 1390 1390 1390 1389
1412 1411 1410 1409 1408 1407 1406 1405 1403 1402 1400 1399 1397 1396 1395 1394 1393 1392 1391 1390 1390 1389 1389 1388 1387 1387 1387 1387 1387 1387 1386 1386 1386 1386 1386 1386 1386 1386 1386 1386 1385 1385 1384
1410 1408 1407 1406 1405 1404 1403 1402 1401 1400 1398 1397 1395 1394 1392 1391 1390 1389 1388 1387 1386 1386 1385 1384 1384 1383 1383 1383 1383 1382 1382 1382 1382 1382 1382 1381 1381 1381 1381 1381 1380 1380 1379
1407 1406 1405 1404 1403 1402 1401 1399 1398 1397 1396 1394 1393 1391 1389 1388 1387 1386 1385 1384 1383 1382 1381 1381 1380 1379 1379 1378 1378 1378 1377 1377 1378 1377 1377 1377 1376 1376 1376 1376 1376 1375 1375
1404 1403 1402 1401 1400 1399 1398 1396 1395 1394 1392 1391 1389 1388 1386 1385 1384 1382 1381 1380 1379 1378 1377 1376 1376 1375 1374 1374 1373 1373 1373 1373 1373 1372 1372 1371 1371 1371 1371 1371 1371 1370 1370
1401 1400 1399 1398 1397 1396 1395 1393 1392 1391 1389 1387 1386 1384 1383 1381 1380 1379 1377 1376 1375 1374 1373 1372 1371 1370 1369 1369 1368 1368 1368 1367 1367 1367 1367 1367 1367 1366 1366 1366 1366 1366 1366